Location: Bellflower
(33.8817°N, 118.1170°W)
Time: 22:41:11
(UTC+00:00)

H-2A R/B - Pass Details

Date: 23 November 2020
Orbit: 499 x 540 km, 97.3° (Epoch: 14 January)

Event Time Altitude Azimuth Distance (km) Brightness Sun altitude
Rises 13:54:52 0° 1° (N) 2,704 6.2 -8.1°
Reaches altitude 10° 13:57:07 10° 352° (N) 1,806 5.2 -7.7°
Maximum altitude 14:00:41 35° 286° (WNW) 877 3.3 -7.0°
Drops below altitude 10° 14:04:14 10° 220° (SW) 1,783 5.2 -6.3°
Sets 14:06:26 0° 211° (SSW) 2,664 6.2 -5.9°
